Location: ????????
(55.3939°N, 37.4780°E)
Time: 06:26:14
(UTC+00:00)

NOSS 2-1 (E) - Pass Details

Date: 14 April 2026
Orbit: 385 x 1749 km, 63.3° (Epoch: 7 May)

Event Time Altitude Azimuth Distance (km) Brightness Sun altitude
Rises 17:09:32 0° 307° (NW) 2,281 8.7 -5.6°
Reaches altitude 10° 17:11:37 10° 318° (NW) 1,435 6.8 -5.9°
Maximum altitude 17:14:25 31° 24° (NNE) 752 4.1 -6.2°
Drops below altitude 10° 17:17:33 10° 90° (E) 1,621 5.2 -6.6°
Enters shadow 17:18:16 - 94° (E) 1,905 5.5 -6.7°
